www.pogodaiklimat.ru

Погода и климат >> Архив погоды >> Россия >> Чукотка >> Певек


АРХИВ ПОГОДЫ в Певеке

Время (UTC), дата Ветер
(напр.,м/с)
 
Видим.   Явления Облачность Т
(С)
Тd
(С)
f
(%)
Тe
(С)
Тes
(С)
Комфортность P
(гПа)
Po
(гПа)
Тmin
(С)
Tmax
(С)
R
(мм)
R24
(мм)
S
(см)
00 18.03 СЗ 3
{6}
4000 м слаб. снег {метель} 10/0
[As op]
-25.8 -28.8 76 -35 -34 опасность
обморожения
1010.2 1009.4
03 18.03 СЗ 3
{5}
4000 м слаб. снег 10/0
[As op]
-25.9 -28.9 76 -35 -34 опасность
обморожения
1008.4 1007.6
06 18.03 СЗ 3
{5}
4000 м слаб. снег {метель} 10/0
[As op]
-24.9 -27.8 77 -33 -33 опасность
обморожения
1006.6 1005.8
09 18.03 СЗ 3
{6}
4000 м слаб. снег {метель} 10/0
[As op]
-23.5 -26.3 78 -32 -32 опасность
обморожения
1005.0 1004.3 -23.5 1
12 18.03 С 6
{9}
4000 м слаб. снег {метель} 10/0
[As op]
-22.1 -24.8 79 -34 -34 опасность
обморожения
1003.6 1002.9
15 18.03 С 6-11
{12}
4000 м слаб. снег {метель} 10/0
[As op]
-22.0 -24.8 78 -33 -33 опасность
обморожения
1002.9 1002.2
18 18.03 СЗ 7-10
{12}
1000 м сильн. снег {метель} 10/0
[As op]
-22.4 -25.2 78 -35 -35 опасность
обморожения
1002.9 1002.2
21 18.03 СЗ 8-11
{13}
2000 м снег {метель} 10/0
[As op]
-23.1 -26.0 77 -36 -36 опасность
обморожения
1004.2 1003.5 -23.5 2 6
00 19.03 СЗ 9-13
{13}
1000 м сильн. снег {метель} 10/0
[As op]
-22.7 -25.5 78 -37 -36 опасность
обморожения
1005.1 1004.4
03 19.03 СЗ 9-12
{14}
500 м сильн. снег {метель} 10/0
[As op]
-22.1 -24.8 79 -36 -36 опасность
обморожения
1005.5 1004.8
06 19.03 З 9-12
{13}
200 м сильн. снег {метель} 10/0
[As op]
-22.2 -24.8 79 -36 -36 опасность
обморожения
1006.0 1005.3
09 19.03 З 10-15
{15}
200 м сильн. снег {метель} 10/0
[As op]
-22.3 -24.9 79 -37 -37 опасность
обморожения
1006.8 1006.1 -21.4 4
12 19.03 З 9-11
{15}
1000 м сильн. снег {метель} 10/0
[As op]
-22.7 -25.3 79 -37 -37 опасность
обморожения
1007.5 1006.7
15 19.03 З 10-12
{12}
500 м сильн. снег {метель} 10/0
[As op]
-23.0 -25.7 78 -38 -38 опасность
обморожения
1008.5 1007.7
18 19.03 З 10-13
{14}
500 м сильн. снег {метель} 10/0
[As op]
-24.8 -27.7 77 -40 -40 опасность
обморожения
1009.9 1009.1
21 19.03 З 9-11
{13}
500 м сильн. снег {метель} 10/0
[As op]
-25.6 -28.4 77 -40 -40 опасность
обморожения
1012.2 1011.4 -25.7 4 22
00 20.03 З 8-10
{12}
500 м сильн. снег {метель} 10/0
[As op]
-25.2 -28.2 76 -39 -39 опасность
обморожения
1014.0 1013.2
03 20.03 З 8-10
{11}
1000 м слаб. снег {метель} 10/0
[As op]
-24.1 -27.0 77 -38 -38 опасность
обморожения
1015.6 1014.8
06 20.03 З 8-10
{11}
1000 м слаб. снег {метель} 10/0
[As op]
-24.2 -27.1 77 -38 -38 опасность
обморожения
1018.3 1017.5
09 20.03 З 7-10
{11}
1000 м слаб. снег {метель} 10/0
[As op]
-24.1 -27.0 77 -37 -37 опасность
обморожения
1021.4 1020.6 -23.6 2
12 20.03 З 4
{10}
4000 м слаб. снег {метель} 10/0
[Ac As]
-24.3 -27.2 77 -34 -34 опасность
обморожения
1023.5 1022.7
15 20.03 Ю 5
{8}
4000 м слаб. снег {метель} 10/0
[As op]
-23.8 -26.8 76 -35 -35 опасность
обморожения
1025.6 1024.8
18 20.03 ЮЗ 7
{9}
4000 м слаб. снег {метель} 10/0
[As op]
-23.5 -26.4 77 -36 -36 опасность
обморожения
1027.4 1026.6
21 20.03 Ю 4
{8}
4000 м слаб. снег {метель} 10/0
[Ac As]
-22.9 -26.3 74 -32 -32 опасность
обморожения
1029.0 1028.2 -24.4 0.8 20
00 21.03 ЮЗ 4
{8}
20 км позёмок {снег} 8/0
[Ac trans Ci fib]
-22.1 -25.6 73 -32 -30 опасность
обморожения
1029.7 1028.9
03 21.03 ЮЗ 3
{6}
20 км {метель} 8/0
[Cc]
-21.9 -25.5 73 -30 -28 по сезону 1029.5 1028.7
06 21.03 Ю 1
{3}
20 км {метель} 3/0
[Cc]
-22.7 -26.3 72 -26 -26 по сезону 1029.5 1028.7
09 21.03 штиль 0
{3}
20 км 6/0
[Ci fib]
-26.8 -29.7 76 -27 -27 по сезону 1029.2 1028.4 -20.5 0.0
12 21.03 З 2
{2}
20 км 3/0
[Ci sp]
-29.8 -32.9 74 -37 -37 опасность
обморожения
1028.3 1027.5
15 21.03 СВ 3
{3}
20 км 3/0
[Ci sp]
-26.7 -29.6 76 -36 -36 опасность
обморожения
1027.7 1026.9
18 21.03 Ю 1
{4}
20 км 8/0
[Ac trans Ci sp]
-28.7 -31.8 75 -33 -33 опасность
обморожения
1027.5 1026.7
21 21.03 ЮЗ 3
{5}
2000 м снег 10/0
[As op]
-24.1 -27.0 77 -33 -32 опасность
обморожения
1027.5 1026.7 -29.9 0.0 21
00 22.03 ЮЗ 3
{4}
10 км слаб. снег 10/0
[Cs]
-22.5 -25.8 74 -31 -29 опасность
обморожения
1027.7 1026.9
03 22.03 ЮЗ 2
{5}
20 км {снег} ясно -22.6 -26.3 72 -29 -27 по сезону 1028.3 1027.5
06 22.03 СЗ 1
{4}
20 км {снег} ясно -24.7 -27.9 75 -28 -28 по сезону 1028.6 1027.8
09 22.03 ЮЗ 2
{4}
20 км ясно -28.5 -32.2 70 -36 -36 опасность
обморожения
1028.9 1028.1 -22.2 0.6
12 22.03 СВ 1
{4}
20 км ясно -29.9 -33.0 74 -34 -34 опасность
обморожения
1028.4 1027.6
15 22.03 штиль 0
{2}
20 км ясно -31.5 -34.7 73 -32 -32 опасность
обморожения
1027.3 1026.5
18 22.03 Ю 1
{1}
20 км ясно -33.2 -36.5 72 -38 -38 опасность
обморожения
1026.5 1025.7
21 22.03 СВ 1
{3}
4000 м дымка ясно -30.4 -33.6 73 -35 -33 опасность
обморожения
1025.3 1024.5 -33.7 21
00 23.03 З 1
{3}
50 км ясно -27.6 -30.8 74 -31 -28 опасность
обморожения
1023.8 1023.0
03 23.03 штиль 0
{2}
20 км ясно -24.1 -27.2 75 -24 -21 по сезону 1022.0 1021.2
06 23.03 ЮЗ 1
{2}
50 км ясно -26.4 -29.5 75 -30 -30 по сезону 1021.0 1020.2
09 23.03 СВ 1
{1}
20 км ясно -28.7 -31.7 75 -33 -33 опасность
обморожения
1020.1 1019.3 -23.5
12 23.03 СВ 1
{2}
20 км ясно -30.2 -33.5 73 -34 -34 опасность
обморожения
1019.0 1018.2
15 23.03 штиль 0
{3}
20 км ясно -33.2 -36.6 71 -33 -33 опасность
обморожения
1017.8 1017.0
18 23.03 ЮЗ 1
{2}
20 км ясно -32.2 -35.5 72 -37 -37 опасность
обморожения
1016.9 1016.1
21 23.03 ЮЗ 1
{2}
50 км 3/0
[Ci sp]
-31.2 -34.6 72 -35 -34 опасность
обморожения
1015.8 1015.0 -33.2 21
00 24.03 штиль 0
{1}
50 км 9/0
[Ci sp]
-26.2 -29.4 74 -26 -23 по сезону 1015.3 1014.5
03 24.03 С 1
{3}
20 км 8/0
[Ci sp]
-23.5 -26.4 77 -27 -25 по сезону 1013.7 1012.9
06 24.03 СВ 3
{5}
20 км 3/0
[Ci sp]
-20.1 -22.7 80 -28 -28 по сезону 1013.2 1012.5
09 24.03 СВ 3
{5}
20 км ясно -18.5 -21.1 80 -26 -26 по сезону 1012.8 1012.1 -17.6
12 24.03 С 3
{7}
20 км {метель} ясно -19.1 -21.7 80 -27 -27 по сезону 1011.8 1011.1
15 24.03 С 5
{8}
20 км позёмок ясно -21.2 -23.9 79 -32 -32 опасность
обморожения
1011.1 1010.4
18 24.03 СВ 4
{7}
20 км позёмок ясно -22.0 -24.6 79 -31 -31 опасность
обморожения
1010.4 1009.7
21 24.03 СВ 3
{10}
1000 м дымка 3/0
[Ci sp]
-22.8 -25.5 79 -31 -30 опасность
обморожения
1009.5 1008.7 -23.8 21

 

Местоположение метеостанции Певек (Чукотка, Россия): широта 69.70 долгота 170.20 высота над уровнем моря 5 м.

В архиве по умолчанию представлена погода в Певеке за последнюю неделю. Архивные данные за месяц целиком и за предыдущие месяцы, начиная с января 2011 года, Вы можете получить, выбрав интересующий диапазон дат из раскрывающегося списка и нажав кнопку "Ввод!".


*Определитесь, кто Вы:
робот инопланетянин человек

Внимание! Время в таблицах - всемирное. Для получения местного времени необходимо прибавить поправку, которая равна 12 ч.

Смотрите также архив погоды в соседних городах и на ближайших метеорологических станциях:

Погода на 21 км (Чукотка, Россия) (26 км)
Погода в Валькаркае (Чукотка, Россия) (50 км)
Погода на Айон Острове (Чукотка, Россия) (92 км)
Погода в Чауне (Чукотка, Россия) (93 км)
Погода в Комсомольской (Чукотка, Россия) (120 км)
Погода в Раучуе (Чукотка, Россия) (145 км)
Погода в Паляваам-Глубокой (Чукотка, Россия) (165 км)
Погода в Майской (Чукотка, Россия) (181 км)
Погода на Мысе Биллингс (Чукотка, Россия) (212 км)
Погода в Билибино (Чукотка, Россия) (238 км)

Пояснения к столбцам:

Ветер - указаны скорость ветра в м/с - средняя за 10 мин, порывы в срок и между сроками (в фигурных скобках) и направление, откуда дует ветер: С - северный, СВ - северо-восточный, В - восточный, ЮВ - юго-восточный, Ю - южный, ЮЗ - юго-западный, З - западный, СЗ - северо-западный.
Видимость - горизонтальная дальность видимости в метрах или километрах. При видимости от 1 до 10 км при отсутствии осадков обычно наблюдается дымка, при ухудшении видимости до 1 км и менее - туман. В сухую погоду видимость может ухудшаться дымом, пылью или мглою.
Явления - указаны атмосферные явления, наблюдавшиеся в срок или в последний час перед сроком; фигурными скобками обозначены явления, наблюдавшиеся между сроками (за 1-3 часа до срока); квадратными скобками обозначены град или гололедные отложения с указанием их диаметра в мм.
Облачность - указаны через наклонную черту общая и нижняя облачность в баллах и высота нижней границы облаков в метрах; квадратными скобками обозначены формы облаков: Ci - перистые, Cs - перисто-слоистые, Cc - перисто-кучевые, Ac - высококучевые, As - высокослоистые, Sc - слоисто-кучевые, Ns - слоисто-дождевые, Cu - кучевые, Cb - кучево-дождевые. Подробнее классификацию облаков см. в Атласе облаков (PDF).
T - Температура воздуха - температура, измеренная на высоте 2 м над землей.
Td - Температура точки росы - температура, при понижении до которой содержащийся в воздухе водяной пар достигнет насыщения.
f - Относительная влажность воздуха - влажноcть воздуха, измеренная на высоте 2 м над землей.
Te - Эффективная температура - температура, которую ощущает одетый по сезону человек в тени. Характеристика душности погоды. При расчете учитывается влияние влажности воздуха и скорости ветра на теплоощущения человека.
Tes - Эффективная температура на солнце - температура, которую ощущает человек, с поправкой на солнечный нагрев. Характеристика знойности погоды. Зависит от высоты солнца над горизонтом, облачности и скорости ветра. Ночью, в пасмурную погоду, а также при ветре 12 м/с и более поправка равна нулю.
P - Атмосферное давление - приведенное к уровню моря атмосферное давление.
Po - Атмосферное давление - измеренное на уровне метеостанции атмосферное давление.
Tmin - Минимальная температура - минимум температуры воздуха на высоте 2 м над землей.
Tmax - Максимальная температура - максимум температуры воздуха на высоте 2 м над землей.
R - Количество осадков - Количество выпавших осадков за период времени, мм. При наведении курсора мыши на число - период времени, за который выпало указанное количество осадков.
R24 - Количество осадков - Количество выпавших осадков за 24 часа, мм.
S - Снежный покров - Высота снежного покрова, см. При наведении курсора мыши на число - состояние снежного покрова и степень покрытия местности в баллах.